Tacoma Narrows, WA

7:09 PM PDT on May 29, 2017 (GMT -0700)
Tacoma Narrows

Weather History for KTIW - September, 2013

Change the Weather History Date:

Wednesday, September 25, 2013

  Actual Average Record
Temperature  
Mean Temperature 54 °F -  
Max Temperature 59 °F 64 °F 77 °F (2006)
Min Temperature 50 °F 48 °F 42 °F (2000)
Degree Days  
Heating Degree Days 12    
Growing Degree Days 4 (Base 50)    
Moisture  
Dew Point 46 °F    
Average Humidity 81    
Maximum Humidity 89    
Minimum Humidity 60    
Precipitation  
Precipitation 0.00 in - - ()
Sea Level Pressure  
Sea Level Pressure 29.93 in    
Wind  
Wind Speed 5 mph (NNE)    
Max Wind Speed 14 mph    
Max Gust Speed -    
Visibility 10 miles    
Events Rain    
Averages and records for this station are not official NWS values.
T = Trace of Precipitation, MM = Missing Value Source: NWS Daily Summary

Daily Weather History Graph

Daily Weather History Graph

Search for Another Location

Airport or City:

Trip Planner

Search our weather history database for the weather conditions in past years. The results will help you decide how hot, cold, wet, or windy it might be!

Date:

Astronomy

Sep. 25, 2013 Rise Set
Actual Time 7:01 AM PDT 7:01 PM PDT
Civil Twilight 6:31 AM PDT 7:31 PM PDT
Nautical Twilight 5:55 AM PDT 8:07 PM PDT
Astronomical Twilight 5:18 AM PDT 8:43 PM PDT
Moon 10:51 PM PDT (9/25) 1:32 PM PDT (9/25)
Length of Visible Light 13h 00m
Length of Day
11h 59m
Waning Gibbous, 63% of the Moon is Illuminated
Sep 25
Waning Gibbous
Sep 26
Last Quarter
Oct 4
New
Oct 11
First Quarter
Oct 18
Full

Hourly Weather History & Observations

Time (PDT) Temp. Dew Point Humidity Pressure Visibility Wind Dir Wind Speed Gust Speed Precip Events Conditions
12:38 AM 51.8 °F 46.4 °F 82% 29.87 in 10.0 mi Calm Calm - N/A   Overcast
12:53 AM 52.0 °F 46.9 °F 83% 29.87 in 10.0 mi Calm Calm - N/A   Overcast
1:53 AM 52.0 °F 46.9 °F 83% 29.87 in 10.0 mi Calm Calm - 0.00 in Rain Light Rain
2:06 AM 51.8 °F 48.2 °F 88% 29.87 in 10.0 mi North 10.4 mph - 0.00 in   Overcast
2:32 AM 50.0 °F 46.4 °F 87% 29.87 in 6.0 mi North 9.2 mph - 0.00 in Rain Light Rain
2:53 AM 50.0 °F 46.9 °F 89% 29.87 in 3.0 mi NNE 8.1 mph - N/A Rain Rain
3:08 AM 50.0 °F 46.4 °F 87% 29.87 in 6.0 mi NNE 8.1 mph - N/A Rain Rain
3:53 AM 50.0 °F 46.0 °F 86% 29.88 in 10.0 mi NNE 5.8 mph - N/A Rain Light Rain
4:18 AM 50.0 °F 46.4 °F 87% 29.87 in 9.0 mi North 5.8 mph - N/A Rain Light Rain
4:31 AM 50.0 °F 46.4 °F 87% 29.88 in 8.0 mi North 8.1 mph - N/A Rain Light Rain
4:53 AM 50.0 °F 46.9 °F 89% 29.88 in 10.0 mi North 8.1 mph - N/A Rain Light Rain
5:10 AM 50.0 °F 46.4 °F 87% 29.88 in 10.0 mi NNE 5.8 mph - N/A Rain Light Rain
5:53 AM 50.0 °F 46.9 °F 89% 29.89 in 10.0 mi NNE 6.9 mph - N/A Rain Light Rain
6:05 AM 50.0 °F 46.4 °F 87% 29.89 in 10.0 mi NNE 5.8 mph - N/A Rain Light Rain
6:21 AM 50.0 °F 46.4 °F 87% 29.89 in 10.0 mi North 9.2 mph - N/A Rain Light Rain
6:53 AM 50.0 °F 46.9 °F 89% 29.91 in 10.0 mi North 6.9 mph - N/A Rain Light Rain
7:32 AM 50.0 °F 46.4 °F 87% 29.91 in 10.0 mi North 8.1 mph - 0.00 in   Overcast
7:53 AM 50.0 °F 46.9 °F 89% 29.92 in 10.0 mi North 10.4 mph - 0.00 in Rain Light Rain
8:53 AM 51.1 °F 46.9 °F 86% 29.93 in 10.0 mi North 9.2 mph - 0.00 in   Overcast
9:53 AM 52.0 °F 46.9 °F 83% 29.94 in 10.0 mi North 13.8 mph - N/A   Mostly Cloudy
10:53 AM 52.0 °F 48.0 °F 86% 29.96 in 10.0 mi Variable 5.8 mph - N/A   Mostly Cloudy
11:53 AM 54.0 °F 48.0 °F 80% 29.96 in 10.0 mi NNE 4.6 mph - N/A   Mostly Cloudy
12:53 PM 55.0 °F 46.0 °F 72% 29.96 in 10.0 mi NNE 9.2 mph - N/A   Mostly Cloudy
1:53 PM 55.0 °F 45.0 °F 69% 29.98 in 10.0 mi NNE 4.6 mph - N/A   Mostly Cloudy
2:53 PM 55.9 °F 45.0 °F 67% 29.99 in 10.0 mi North 5.8 mph - N/A   Mostly Cloudy
3:53 PM 55.9 °F 45.0 °F 67% 29.99 in 10.0 mi NE 3.5 mph - N/A   Overcast
4:53 PM 57.9 °F 44.1 °F 60% 30.00 in 10.0 mi North 4.6 mph - N/A   Scattered Clouds
5:53 PM 57.0 °F 44.1 °F 62% 30.01 in 10.0 mi NE 3.5 mph - N/A   Scattered Clouds
6:53 PM 55.9 °F 44.1 °F 64% 30.01 in 10.0 mi Calm Calm - N/A   Scattered Clouds
7:53 PM 55.0 °F 43.0 °F 64% 30.02 in 10.0 mi Calm Calm - N/A   Clear
8:53 PM 53.1 °F 46.0 °F 77% 30.03 in 10.0 mi Calm Calm - N/A   Mostly Cloudy
9:53 PM 52.0 °F 46.0 °F 80% 30.04 in 10.0 mi South 4.6 mph - N/A   Mostly Cloudy
10:53 PM 52.0 °F 46.9 °F 83% 30.04 in 10.0 mi Calm Calm - N/A   Partly Cloudy
11:53 PM 50.0 °F 46.0 °F 86% 30.04 in 10.0 mi Calm Calm - N/A   Clear